Regional Weather Roundup
Issued by NWS

Home | Current Version | Previous Version | Graphics & Text | Print | Product List | Glossary Off
Versions: 1 2 3 4 5 6 7 8 9 10 11 12 13 14 15 16 17 18 19 20 21 22 23 24 25 26 27 28 29 30 31 32 33 34 35 36 37 38 39 40 41 42 43 44 45 46 47 48 49 50

000
ASUS43 KMPX 031210
RWRMN
WEATHER ROUNDUP FOR MINNESOTA
NATIONAL WEATHER SERVICE TWIN CITIES/CHANHASSEN MN
700 AM CDT WED JUN 03 2015


NOTE: "FAIR" INDICATES FEW OR NO CLOUDS BELOW 12,000 FEET WITH NO
SIGNIFICANT WEATHER AND/OR OBSTRUCTIONS TO VISIBILITY. N/A MEANS
CURRENT SKY AND/OR WEATHER CONDITIONS ARE NOT AVAILABLE.

MNZ060>063-068>070-031300-
   Twin Cities Metro

CITY           SKY/WX    TMP DP  RH WIND       PRES   REMARKS
TWIN CITIES    CLOUDY    64  56  75 S9        29.87F
6HR MIN TEMP:  64; 6HR MAX TEMP:  67;

ST PAUL        CLOUDY    64  56  75 S12       29.87F
CRYSTAL        CLOUDY    66  55  67 S13       29.85F
BLAINE         CLOUDY    66  57  72 S10       29.86S
LAKEVILLE      CLOUDY    63  55  77 S7        29.87F
EDEN PRAIRIE   CLOUDY    64  56  75 S10       29.86S
6HR MIN TEMP:  64; 6HR MAX TEMP:  67; 6HR PCP: TRACE;

SOUTH ST PAUL  LGT RAIN  64  56  75 SE8       29.87F
LAKE ELMO      CLOUDY    63  55  77 S9        29.89S
$$
MNZ001>005-007-008-013>017-022>024-027-028-031300-
   Northwest Minnesota

CITY           SKY/WX    TMP DP  RH WIND       PRES   REMARKS
BEMIDJI        PTSUNNY   59  57  94 E5        29.79R
HALLOCK        CLOUDY    54  50  87 N12       29.81S
ROSEAU         CLOUDY    59  54  82 NE14      29.81R HAZE
WARROAD        FOG       57  54  88 NE10      29.82S VSB 1/4
THIEF RVR FALL CLOUDY    59  57  94 NE14      29.78R
CROOKSTON      CLOUDY    61  59  94 E8        29.76R
FOSSTON        CLOUDY    61  57  88 CALM      29.77R
DETROIT LAKES  CLOUDY    63  59  88 CALM      29.75S
MOORHEAD       CLOUDY    61  61 100 NW6       29.73R FOG
PARK RAPIDS    CLOUDY    63  56  78 SE9       29.77R
MAHNOMEN       CLOUDY    62  58  88 SE7       29.74S
$$
MNZ006-009>011-018-025>026-031300-
   North Central Minnesota

CITY           SKY/WX    TMP DP  RH WIND       PRES   REMARKS
BAUDETTE       CLOUDY    59  57  93 NE6       29.81R
FLAG ISLAND    CLOUDY    57  55  94 NE13      29.83S
INTL FALLS     CLOUDY    57  56  96 SE5       29.83R
6HR MIN TEMP:  56; 6HR MAX TEMP:  59; 6HR PCP:  0.06;

WASKISH        CLOUDY    57  57 100 E5        29.81R
BIG FORK       PTSUNNY   59  57  94 SE6       29.83S
LONGVILLE      PTSUNNY   61  57  88 SE6       29.79F
GRAND RAPIDS   CLOUDY    61  54  77 SE12      29.82S
CRANE LAKE     CLOUDY    55  55 100 S3        29.87R
ORR            CLOUDY    55  54  94 CALM      29.83S
COOK           CLOUDY    57  55  94 SE3       29.86S
WALKER         CLOUDY    60  57  88 CALM      29.78R
$$
MNZ012-019>021-037-031300-
   Northeast Minnesota

CITY           SKY/WX    TMP DP  RH WIND       PRES   REMARKS
DULUTH         CLOUDY    56  52  86 SE7       29.87S
6HR MIN TEMP:  50; 6HR MAX TEMP:  57; 6HR PCP:  0.03;

ELY            LGT RAIN  55  54  94 SE5       29.86F
HIBBING        CLOUDY    57  55  93 E5        29.85R
EVELETH        CLOUDY    55  55 100 NE3       29.88R
DULUTH HARBOR  CLOUDY    48  46  93 E10       29.89F THUNDER
TWO HARBORS    CLOUDY    57  52  82 E6        29.86F
SILVER BAY     LGT RAIN  55  54  94 E8        29.85F
GRAND MARAIS     N/A     44  43  96 SW3       29.93S
G MARAIS ARPRT DRIZZLE   54  48  82 S8        29.93F
$$
MNZ029>031-032-039>041-046>048-054>057-064-031300-
   West Central Minnesota

CITY           SKY/WX    TMP DP  RH WIND       PRES   REMARKS
FERGUS FALLS   CLOUDY    64  61  88 S6        29.74F
WHEATON        CLOUDY    63  61  94 W9        29.76R
MORRIS         CLOUDY    63  57  82 S12       29.76R
ALEXANDRIA     CLOUDY    62  57  83 S9        29.78F
ELBOW LAKE     FAIR      62  59  88 S10       29.74F
WADENA         MOSUNNY   63  57  82 S9        29.75S
GLENWOOD       CLOUDY    63  57  82 S12       29.79S
APPLETON       CLOUDY    66  61  82 S7        29.76R
BENSON         LGT RAIN  63  57  82 S8        29.78R
ORTONVILLE     CLOUDY    63  59  88 S3        29.76R
MADISON        CLOUDY    64  61  88 S7        29.77R
WILLMAR        FAIR      64  57  77 S7        29.81S
$$
MNZ033>034-036-042>043-049>051-058-059-031300-
   Central Minnesota

CITY           SKY/WX    TMP DP  RH WIND       PRES   REMARKS
ST CLOUD       CLOUDY    64  56  75 S9        29.81F
6HR MIN TEMP:  63; 6HR MAX TEMP:  67;

SAUK CENTRE    CLOUDY    63  57  81 S9        29.79F
PAYNESVILLE    CLOUDY    61  56  83 SE9       29.81S
AITKIN         CLOUDY    63  55  77 S8        29.81S
PINE RIVER     CLOUDY    61  55  82 SE8       29.83F
BRAINERD       CLOUDY    62  56  80 S7        29.80F
STAPLES        MOSUNNY   61  55  82 S10G18    29.77F
LONG PRAIRIE   PTSUNNY   61  55  82 SE13      29.79F
LITTLE FALLS   PTSUNNY   63  54  72 SE7       29.80F
LITCHFIELD     CLOUDY    64  61  88 S6        29.83R
BUFFALO        CLOUDY    64  55  71 SE9       29.84F
MAPLE LAKE     CLOUDY    65  58  76 S7        29.83F
$$
MNZ037-044-045-052-053-031300-
   East Central Minnesota

CITY           SKY/WX    TMP DP  RH WIND       PRES   REMARKS
PRINCETON      CLOUDY    66  57  72 S10       29.83F
MORA           PTSUNNY   63  54  72 SE5       29.86S
CAMBRIDGE      PTSUNNY   66  54  63 S12G17    29.82F
RUSH CITY      MOSUNNY   63  55  76 S8        29.85S
MOOSE LAKE     CLOUDY    61  54  77 CALM      29.85F
HINCKLEY       CLOUDY    63  55  77 SE7       29.85F
CLOQUET        CLOUDY    54  52  94 SE3       29.87S
MCGREGOR       CLOUDY    59  55  88 SE7       29.84F
$$
MNZ071>073-080-081-089-090-097-098-031300-
   Southwest Minnesota

CITY           SKY/WX    TMP DP  RH WIND       PRES   REMARKS
MONTEVIDEO     CLOUDY    64  61  88 S6        29.78F
GRANITE FALLS  CLOUDY    64  59  82 SE8       29.80S
CANBY          LGT RAIN  65  61  85 CALM      29.78S
MARSHALL       CLOUDY    64  57  77 S7        29.78S
REDWOOD FALLS  CLOUDY    65  57  75 S14       29.79F
OLIVIA         CLOUDY    63  54  72 S10       29.80S
PIPESTONE      CLOUDY    63  59  88 S7        29.80S
WINDOM         CLOUDY    63  57  82 S7        29.81F
WORTHINGTON    CLOUDY    61  55  82 S10       29.82S
JACKSON        CLOUDY    63  57  82 S12       29.83F
TRACY          CLOUDY    64  59  83 S8        29.79S
SLAYTON        CLOUDY    61  59  92 CALM      29.81F
$$
MNZ065>067-074>077-082>085-091>093-031300-
   South Central Minnesota

CITY           SKY/WX    TMP DP  RH WIND       PRES   REMARKS
MANKATO        CLOUDY    64  55  72 S7        29.87R
NEW ULM        CLOUDY    63  57  82 SE9       29.83F
ST JAMES       CLOUDY    64  57  77 SE15      29.83F
FAIRMONT       CLOUDY    61  54  77 S10       29.84F
GLENCOE        CLOUDY    64  59  82 SE9       29.83F
FARIBAULT      CLOUDY    63  55  77 SE10G20   29.88F
OWATONNA       CLOUDY    63  55  77 SE17      29.88F
WASECA         CLOUDY    63  54  72 SE6       29.89S
ALBERT LEA     CLOUDY    63  55  77 S14       29.88F
$$
MNZ078>079-086>088-094>096-031300-
   Southeast Minnesota

CITY           SKY/WX    TMP DP  RH WIND       PRES   REMARKS
ROCHESTER      CLOUDY    60  54  80 S14       29.93F
6HR MIN TEMP:  59; 6HR MAX TEMP:  61; 6HR PCP: TRACE;

RED WING       MOSUNNY   63  54  72 SE8       29.89F
STANTON        CLOUDY    64  55  73 S12G17    29.88S
DODGE CENTER   CLOUDY    63  55  77 S17       29.90F
WINONA         CLOUDY    61  54  77 SE6       29.95F
AUSTIN         CLOUDY    61  55  82 S8        29.91F
PRESTON        PTSUNNY   58  53  82 S12       29.95F
$$
ABBREVIATIONS USED IN REMARKS
   TC - TEMPERATURES IN CELSIUS
  WCI - WIND CHILL INDEX
   HX - HEAT INDEX
  VSB - VISIBILITY
$$



USA.gov is the U.S. government's official web portal to all federal, state and local government web resources and services.